Temperature
15 15 15 16 16 16 16 15 15 15 15 15 15 15 15 15 15 15 15 15 15 15 16 16 16 16 16 16 16 16 16 16 16 16 16 16 16 16 17 17 17 17 17
15 15 15 15 15 15 15 15 15 15 15 15 15 15 15 15 15 15 15 15 15 15 15 15 15 16 16 16 16 16 16 16 16 16 16 16 16 16 16 16 17 17 17
15 15 15 15 15 15 15 15 15 15 15 15 15 15 15 15 15 15 15 15 15 15 15 15 15 15 16 16 16 16 16 16 16 16 16 16 16 16 16 16 16 16 17
15 15 15 15 15 15 15 15 15 15 15 15 15 15 15 14 15 15 15 15 15 15 15 15 15 15 15 15 15 15 15 15 15 16 16 16 16 16 16 16 16 16 16
16 16 15 15 15 15 15 15 15 15 15 15 14 14 14 14 14 14 14 15 15 15 15 15 15 15 15 15 15 15 15 15 15 15 15 15 15 16 16 16 16 16 16
15 15 15 15 15 15 15 15 15 15 14 14 14 14 14 14 14 14 14 14 14 15 15 15 15 15 15 15 15 15 15 15 15 15 15 15 15 15 16 16 16 16 16
15 15 15 15 15 15 15 15 15 14 14 14 14 14 14 14 14 14 14 14 14 14 14 15 15 15 15 15 15 15 15 15 15 15 15 15 15 15 15 15 15 15 15
15 15 15 15 15 15 15 15 14 14 14 14 14 14 14 14 14 14 14 14 14 14 14 14 14 14 15 15 15 15 15 15 15 15 15 15 15 15 15 15 15 15 15
15 15 15 15 15 15 15 15 15 14 14 14 14 14 14 14 14 14 14 14 14 14 14 14 14 14 14 14 14 14 14 14 15 15 15 15 15 15 15 15 15 15 15
15 15 15 15 15 15 15 15 15 15 15 14 14 14 14 14 14 14 14 14 14 14 14 14 14 14 14 14 14 14 14 14 15 15 15 15 15 15 15 15 15 15 15
15 15 15 15 15 15 15 15 15 15 15 15 15 14 14 14 14 14 14 14 14 14 14 14 14 14 14 14 14 14 14 14 14 15 15 15 15 15 14 15 15 15 14
15 15 15 15 15 15 15 15 15 15 15 15 15 15 15 14 14 14 14 14 14 14 14 14 14 14 14 14 14 14 14 14 14 14 14 14 14 14 14 14 14 14 14
15 15 15 15 15 15 15 15 15 15 15 15 15 15 15 14 14 14 14 14 14 13 13 14 13 13 13 13 13 13 13 13 13 13 14 14 14 14 14 14 14 14 14
15 15 15 15 15 15 15 15 15 15 15 15 15 14 14 14 14 14 14 14 14 13 13 13 13 13 13 13 13 13 13 13 13 13 13 13 13 13 13 14 14 14 14
15 15 15 15 15 15 14 14 14 14 14 14 14 14 14 14 14 14 14 14 14 13 13 13 13 13 13 13 13 13 13 13 13 13 13 13 13 13 13 13 13 13 13
15 15 15 15 15 15 14 14 14 14 14 14 14 14 14 14 14 14 14 14 13 13 13 13 13 13 13 13 13 13 13 13 13 13 13 13 13 13 13 13 13 13 13
15 15 15 15 15 15 15 14 14 14 14 14 14 14 14 14 14 14 14 13 13 13 13 13 13 13 13 13 12 12 12 12 12 12 12 12 12 12 12 12 12 12 12
15 15 15 15 15 15 14 14 14 14 14 14 14 14 14 13 13 13 13 13 13 13 13 13 13 13 13 13 12 12 12 12 12 12 12 12 12 12 12 12 12 12 12
15 15 15 15 15 14 14 14 14 14 14 14 14 13 13 13 13 13 13 13 13 13 13 13 13 13 13 12 12 12 12 12 12 12 12 12 12 12 12 12 12 12 11
15 15 15 15 14 14 14 14 14 14 14 13 13 13 13 13 13 13 13 13 13 13 12 12 12 12 12 12 12 12 12 12 12 12 12 11 11 11 11 11 11 11 11
15 15 15 14 14 14 14 14 14 13 13 13 13 13 13 13 13 13 12 12 12 12 12 12 12 12 12 12 12 12 12 12 11 11 11 11 11 11 11 11 11 11 11
15 15 15 14 14 14 14 14 14 13 13 13 13 13 13 13 12 12 12 12 12 12 12 12 12 12 11 11 11 11 11 11 11 11 11 11 11 11 11 10 10 10 10
15 15 15 14 14 14 14 14 13 13 13 13 13 13 12 12 12 12 12 12 12 12 11 11 11 11 11 11 11 11 10 10 10 10 10 10 10 10 10 10 10 10 10
15 15 14 14 14 14 14 13 13 13 13 13 12 12 12 12 12 12 11 11 11 11 11 11 11 11 10 10 10 10 10 10 10 10 9 9 10 10 10 10 9 9 9
15 14 14 14 14 14 13 13 13 13 13 12 12 12 12 12 11 11 11 11 11 11 11 10 10 10 10 10 10 10 9 9 9 9 9 9 9 9 9 9 9 9 9
15 14 14 14 14 14 13 13 13 13 13 12 12 12 12 11 11 11 11 11 11 10 10 10 10 10 10 9 9 9 9 9 8 8 8 8 8 8 8 8 8 8 8
Wind_Speed
3 4 4 6 6 6 6 6 6 6 6 7 7 7 7 8 9 9 10 13 13 11 10 10 9 9 10 10 10 9 8 7 7 8 8 8 7 7 7 7 7 7 6
4 3 3 4 5 6 6 7 6 5 5 6 6 7 7 8 10 10 11 12 13 14 12 10 10 10 10 10 11 11 11 10 9 9 9 9 8 8 8 8 7 7 7
5 4 3 3 4 6 7 8 7 6 5 5 6 7 7 8 9 10 11 11 12 13 14 12 11 11 10 11 11 11 11 11 10 10 9 9 9 9 8 9 8 8 7
6 5 4 3 4 6 6 4 4 5 5 5 5 5 6 7 9 10 11 11 11 11 13 14 13 12 12 12 12 12 12 12 11 11 10 10 9 9 9 9 8 8 7
7 6 4 4 5 5 4 4 4 4 4 4 5 5 5 5 6 8 9 10 11 11 11 12 14 14 13 13 12 12 12 12 11 11 10 10 9 9 9 9 8 8 8
6 6 5 5 5 4 4 4 4 4 3 3 5 6 5 5 5 6 6 8 9 10 11 11 11 11 14 14 13 13 12 12 11 10 10 9 9 9 9 8 8 8 8
6 6 4 4 4 3 3 4 4 5 3 2 3 4 4 5 5 5 5 6 7 9 10 10 10 10 10 12 13 13 13 12 12 11 10 10 10 9 8 8 8 7 7
5 5 5 3 3 4 4 3 3 3 2 3 2 3 3 4 4 5 4 4 5 7 8 9 9 10 9 9 11 13 12 12 11 10 9 9 9 8 8 8 7 7 7
5 6 5 4 3 3 3 2 3 4 2 2 2 3 3 1 2 3 4 4 4 4 5 6 8 9 9 9 10 11 12 12 11 10 9 9 9 9 8 8 7 7 7
5 5 5 5 4 3 3 2 2 2 3 2 2 2 2 3 2 1 3 3 4 4 4 5 6 7 8 8 9 11 12 13 13 12 9 9 8 9 9 9 8 7 7
5 4 4 4 3 3 3 3 3 3 2 3 2 2 2 3 2 3 0 3 3 3 3 3 5 6 7 8 8 9 12 13 14 13 11 10 10 10 10 10 9 8 7
3 4 4 3 3 3 2 2 2 3 2 2 2 2 2 2 2 2 2 0 2 3 3 3 3 4 5 6 7 9 10 12 13 14 13 12 12 11 12 12 12 10 9
1 2 2 2 2 2 3 3 3 3 2 2 2 1 1 1 2 3 3 1 1 2 3 2 2 4 4 5 6 7 8 10 11 12 13 13 13 13 14 14 14 13 11
0 1 2 3 3 3 3 3 3 2 2 2 2 2 2 1 2 2 3 3 1 2 2 3 2 3 4 4 5 6 6 8 9 10 11 12 12 12 13 13 13 12 10
1 2 3 3 3 4 3 3 3 3 3 3 2 2 2 1 1 1 2 3 4 1 1 2 2 3 4 3 4 5 5 7 7 8 9 9 10 10 11 11 11 11 10
2 3 3 3 3 3 3 3 3 2 4 3 2 3 2 1 1 1 2 1 2 3 1 2 2 2 3 3 4 4 5 6 7 7 8 7 8 8 8 9 9 9 10
2 2 3 3 3 3 3 3 3 3 4 3 3 3 3 2 2 2 2 2 2 2 2 2 1 2 2 3 4 5 5 5 6 7 7 7 7 7 7 8 8 8 8
2 2 3 3 3 2 2 3 3 3 3 3 2 3 2 2 3 2 2 2 1 1 2 1 1 2 2 2 3 3 4 4 5 6 6 6 6 7 7 7 7 7 8
2 3 3 3 2 2 2 2 3 3 3 2 2 2 1 3 2 1 2 1 1 1 1 2 1 1 1 2 2 2 3 4 5 5 6 6 6 6 7 7 7 7 7
3 3 2 2 2 2 2 2 3 3 2 2 1 1 1 2 1 1 1 1 1 2 2 2 0 1 1 2 1 2 3 3 3 5 6 6 6 6 6 6 7 7 7
3 3 3 2 2 2 2 3 3 3 2 1 1 1 0 1 1 2 1 1 2 2 2 1 1 1 2 2 1 1 1 3 2 2 3 4 5 5 6 7 7 7 7
3 3 3 2 2 2 3 5 5 3 2 2 0 1 1 1 1 1 1 2 4 3 2 2 1 1 2 2 1 1 1 2 3 2 2 3 3 3 5 6 7 7 7
3 3 3 3 3 3 4 4 5 4 3 2 2 1 0 1 2 2 2 3 2 1 3 3 2 3 3 3 2 1 1 1 3 3 1 3 2 3 5 6 7 8 8
4 3 3 3 3 3 4 5 5 4 2 2 2 2 2 2 1 2 2 1 1 1 1 1 3 3 3 2 3 2 2 1 2 2 1 2 3 3 5 7 8 8 7
4 3 3 4 3 3 4 5 5 3 2 2 2 2 2 2 3 3 3 1 1 2 2 1 0 1 2 3 0 2 1 1 2 2 1 1 2 3 3 4 7 7 8
4 4 3 3 3 3 4 5 5 3 3 2 1 1 2 3 2 3 3 2 2 3 2 2 3 3 4 4 2 1 2 1 1 2 2 1 2 2 3 3 3 6 7
Wind_Direction
60 52 47 51 54 65 74 73 73 70 66 61 62 62 52 47 42 39 33 38 43 49 55 57 56 53 49 44 43 47 51 54 57 58 56 55 54 55 56 53 52 52 52
79 73 58 55 55 66 79 83 82 79 68 64 56 54 50 45 43 41 39 37 39 44 49 53 53 51 49 47 49 53 53 54 57 57 55 54 56 57 54 54 51 52 50
84 89 81 65 62 78 86 86 81 76 68 63 51 48 49 46 46 45 43 39 38 40 43 48 51 50 49 51 51 54 53 53 54 55 54 53 54 55 56 55 52 50 48
84 87 84 70 78 88 88 84 75 74 64 59 53 41 42 44 44 46 46 42 42 40 40 43 47 50 51 52 51 52 53 53 54 54 54 53 52 53 56 53 50 51 49
76 83 81 77 89 89 83 92 73 81 80 72 68 50 38 40 38 45 44 42 43 44 42 40 43 47 48 47 46 46 47 49 49 50 52 51 49 48 50 52 51 50 48
77 84 81 77 87 85 77 84 89 71 75 78 77 60 41 36 40 37 36 40 40 41 42 42 38 38 42 44 42 42 41 42 43 42 45 45 44 45 47 47 47 46 47
79 86 85 76 80 86 98 105 97 82 63 54 76 48 25 34 42 32 31 38 36 37 41 40 38 37 34 36 37 39 38 38 38 39 41 44 43 43 43 41 39 39 43
73 86 88 84 82 92 91 91 102 99 64 43 95 89 30 5 13 24 24 34 29 31 35 36 37 36 33 31 31 34 33 32 32 33 37 39 39 39 40 37 33 34 40
71 82 88 91 88 95 111 109 117 126 132 54 64 124 128 203 331 358 16 24 22 25 20 26 32 32 32 29 27 31 32 30 26 26 32 37 39 38 38 37 38 39 43
63 81 92 95 93 94 102 113 108 120 134 131 68 59 106 147 137 16 350 3 18 23 13 20 21 23 26 28 29 32 33 31 27 25 30 36 37 37 36 35 38 41 48
45 67 85 94 94 92 94 92 94 100 119 138 138 117 86 68 86 132 357 340 357 357 2 7 12 12 16 23 26 30 33 32 30 31 38 43 43 41 36 35 37 43 50
21 43 67 80 88 89 92 94 94 98 100 111 120 129 138 135 144 135 150 291 338 328 342 353 6 4 7 16 22 28 32 34 35 36 41 43 42 41 38 40 44 49 55
17 9 53 78 82 89 95 96 88 84 89 104 121 123 129 139 145 141 136 146 13 327 335 342 346 0 8 12 14 22 30 35 37 37 37 39 40 40 39 41 44 49 53
188 45 70 83 84 87 89 90 77 75 78 88 93 105 109 117 135 143 148 142 92 359 353 326 332 352 0 9 14 23 26 33 37 37 35 37 37 37 37 38 39 40 44
114 90 87 84 80 83 89 91 78 66 74 73 81 88 90 76 104 120 136 147 143 131 318 310 320 331 351 9 16 23 24 29 33 34 33 34 36 35 36 36 36 35 36
101 103 97 88 83 82 89 89 82 72 79 62 68 77 67 53 73 89 115 116 131 153 199 280 284 311 347 11 19 20 18 23 26 28 29 31 32 31 31 32 32 30 28
133 128 127 113 99 90 92 96 90 89 86 69 63 77 65 59 67 70 90 102 108 128 159 286 308 327 351 2 2 11 15 13 12 22 26 26 26 25 26 29 31 29 27
138 130 121 114 110 104 105 112 109 100 99 89 77 81 68 74 65 63 82 95 119 143 155 210 317 337 341 346 351 359 7 9 5 13 15 15 15 14 15 17 18 18 17
137 124 123 131 135 133 129 134 128 116 114 111 105 101 91 91 70 61 72 75 77 92 121 156 280 325 328 345 360 3 9 2 5 7 7 4 360 1 4 5 3 1 1
147 149 152 159 157 150 147 142 128 119 113 101 103 112 120 136 163 147 103 103 98 82 83 92 5 338 328 326 11 360 352 354 351 357 357 357 356 356 354 354 353 349 347
161 162 151 155 157 159 167 157 148 138 132 105 45 1 78 146 159 160 144 157 133 112 99 89 30 352 333 332 325 316 324 327 330 348 343 346 347 347 344 344 343 343 342
160 154 164 170 174 185 165 161 152 146 145 143 149 321 339 9 45 88 130 136 140 143 160 156 197 246 274 264 268 296 328 0 318 328 346 320 338 322 322 325 326 331 334
162 165 181 178 196 211 182 169 166 152 157 173 190 213 339 43 79 86 68 64 65 108 164 169 189 230 245 241 219 260 248 234 257 295 342 301 312 300 308 316 318 320 324
169 183 193 195 201 216 196 184 174 159 166 196 206 204 212 253 180 145 119 81 22 346 296 196 205 232 245 237 204 216 226 261 289 309 330 282 302 296 306 310 315 320 324
179 190 189 191 201 229 206 191 172 157 176 220 231 213 207 223 224 166 138 145 334 320 353 9 272 301 317 320 157 106 61 14 309 302 300 255 293 304 299 296 310 319 320
187 185 192 200 204 227 222 203 181 164 177 213 256 267 236 214 222 182 166 170 226 276 316 4 10 359 1 355 4 162 191 207 267 290 289 273 295 325 311 295 308 318 319
Height
1553 1553 1553 1552 1552 1553 1553 1553 1553 1553 1553 1553 1553 1552 1552 1551 1551 1551 1550 1549 1549 1549 1548 1548 1547 1547 1546 1545 1542 1540 1541 1542 1543 1544 1544 1543 1543 1543 1542 1542 1542 1542 1542
1554 1554 1554 1554 1554 1554 1554 1554 1554 1554 1554 1554 1554 1554 1554 1553 1553 1552 1551 1551 1550 1550 1550 1549 1548 1548 1547 1546 1544 1542 1543 1543 1544 1544 1544 1544 1544 1543 1543 1543 1542 1542 1542
1555 1555 1555 1555 1555 1555 1555 1555 1556 1556 1556 1556 1555 1555 1555 1555 1554 1554 1553 1553 1552 1551 1551 1550 1549 1549 1548 1547 1546 1545 1545 1545 1545 1545 1544 1544 1544 1544 1543 1543 1543 1542 1542
1556 1556 1556 1556 1556 1556 1556 1556 1557 1557 1557 1557 1557 1557 1557 1557 1556 1555 1555 1554 1553 1553 1552 1551 1550 1550 1549 1549 1548 1547 1547 1546 1546 1545 1545 1545 1545 1544 1544 1543 1543 1542 1542
1556 1556 1556 1556 1556 1557 1557 1557 1558 1558 1558 1558 1558 1558 1558 1558 1558 1557 1557 1556 1555 1554 1553 1553 1552 1551 1551 1550 1549 1549 1548 1548 1547 1546 1546 1546 1545 1544 1544 1544 1543 1542 1541
1557 1557 1557 1557 1557 1557 1558 1558 1558 1559 1559 1559 1559 1559 1559 1559 1559 1559 1558 1558 1557 1556 1555 1554 1553 1553 1552 1552 1551 1550 1549 1549 1548 1547 1546 1546 1545 1545 1544 1544 1543 1542 1541
1558 1558 1558 1558 1558 1558 1558 1559 1559 1559 1560 1560 1561 1561 1561 1561 1560 1560 1560 1559 1558 1558 1557 1556 1555 1554 1553 1553 1552 1551 1550 1549 1549 1548 1547 1546 1545 1545 1544 1543 1543 1542 1541
1559 1559 1558 1558 1558 1559 1559 1559 1560 1560 1560 1561 1562 1561 1562 1563 1562 1561 1561 1560 1560 1559 1558 1557 1556 1556 1555 1554 1553 1552 1551 1550 1549 1548 1547 1546 1545 1544 1543 1542 1542 1541 1540
1559 1559 1559 1559 1559 1559 1559 1560 1560 1561 1561 1562 1562 1563 1562 1562 1562 1563 1562 1561 1561 1560 1559 1559 1558 1557 1556 1555 1554 1553 1552 1551 1549 1548 1546 1545 1545 1544 1543 1542 1540 1539 1539
1560 1560 1560 1560 1560 1560 1560 1560 1561 1561 1561 1562 1562 1562 1563 1563 1563 1563 1563 1562 1562 1561 1560 1560 1559 1558 1557 1556 1555 1554 1553 1551 1549 1546 1544 1544 1544 1543 1541 1539 1537 1537 1537
1561 1560 1560 1561 1560 1560 1561 1561 1561 1561 1562 1562 1562 1562 1562 1562 1563 1563 1563 1563 1562 1562 1561 1561 1560 1559 1558 1557 1556 1555 1553 1551 1549 1545 1543 1543 1543 1542 1540 1537 1533 1533 1535
1562 1561 1561 1561 1561 1561 1561 1561 1562 1562 1562 1562 1562 1562 1562 1563 1562 1562 1562 1562 1562 1562 1562 1561 1561 1560 1559 1558 1557 1556 1554 1552 1550 1547 1545 1544 1544 1542 1540 1536 1533 1532 1534
1562 1562 1562 1562 1562 1562 1562 1562 1562 1562 1562 1562 1562 1562 1563 1563 1563 1563 1563 1562 1562 1562 1562 1562 1561 1561 1560 1559 1558 1557 1555 1553 1551 1549 1547 1546 1544 1543 1541 1538 1536 1535 1536
1563 1563 1563 1563 1563 1563 1563 1563 1563 1563 1563 1562 1563 1563 1563 1563 1563 1563 1563 1563 1562 1563 1562 1562 1562 1561 1560 1559 1558 1557 1556 1554 1553 1551 1549 1547 1546 1544 1542 1540 1539 1538 1537
1564 1564 1564 1564 1564 1564 1564 1563 1563 1563 1563 1563 1563 1563 1563 1563 1563 1563 1563 1563 1564 1562 1562 1562 1562 1561 1561 1560 1559 1558 1556 1555 1554 1552 1551 1549 1547 1545 1544 1542 1541 1540 1538
1564 1564 1564 1564 1564 1564 1564 1564 1564 1563 1563 1563 1563 1563 1563 1563 1563 1563 1563 1563 1563 1563 1562 1562 1562 1561 1561 1560 1559 1558 1557 1556 1554 1553 1551 1550 1548 1547 1545 1543 1542 1541 1539
1565 1565 1565 1565 1565 1565 1565 1564 1564 1564 1564 1563 1563 1563 1563 1563 1563 1563 1563 1562 1562 1562 1561 1561 1561 1561 1560 1560 1559 1558 1557 1555 1554 1553 1552 1550 1549 1547 1546 1544 1543 1541 1540
1565 1565 1565 1565 1565 1565 1565 1565 1565 1564 1564 1564 1564 1563 1563 1563 1563 1563 1562 1562 1562 1562 1561 1561 1560 1560 1560 1559 1558 1557 1556 1555 1554 1553 1551 1550 1549 1547 1546 1544 1543 1542 1540
1565 1565 1565 1565 1565 1565 1565 1565 1565 1564 1564 1564 1564 1564 1563 1563 1563 1562 1562 1562 1561 1561 1561 1560 1560 1559 1559 1558 1557 1556 1555 1554 1553 1552 1551 1549 1548 1547 1545 1544 1542 1541 1539
1564 1565 1565 1565 1565 1565 1565 1565 1565 1564 1564 1564 1564 1563 1563 1562 1562 1562 1561 1561 1561 1560 1560 1559 1559 1558 1558 1557 1556 1555 1554 1553 1552 1551 1550 1549 1547 1546 1544 1543 1541 1540 1538
1563 1564 1564 1564 1564 1564 1564 1564 1564 1564 1564 1563 1563 1562 1562 1562 1561 1561 1560 1560 1559 1559 1559 1558 1557 1557 1556 1555 1554 1553 1552 1551 1550 1549 1548 1547 1545 1544 1543 1541 1539 1538 1536
1562 1563 1563 1563 1563 1563 1563 1563 1563 1563 1563 1562 1562 1561 1561 1560 1560 1560 1559 1558 1558 1557 1557 1556 1556 1555 1554 1553 1552 1551 1550 1549 1547 1547 1545 1544 1543 1541 1540 1539 1537 1536 1534
1560 1561 1561 1562 1562 1562 1562 1562 1562 1562 1561 1561 1560 1560 1559 1559 1559 1558 1557 1557 1556 1556 1555 1555 1554 1553 1552 1551 1550 1549 1548 1547 1545 1544 1542 1541 1540 1539 1538 1536 1534 1533 1531
1558 1559 1560 1560 1560 1560 1560 1560 1560 1560 1559 1559 1558 1558 1558 1557 1557 1556 1556 1555 1554 1554 1553 1552 1551 1551 1550 1549 1548 1547 1545 1544 1543 1542 1540 1537 1536 1535 1534 1532 1531 1529 1528
1556 1557 1557 1558 1558 1558 1558 1558 1558 1557 1557 1557 1556 1556 1556 1555 1555 1554 1553 1553 1552 1551 1551 1550 1549 1548 1547 1546 1545 1544 1542 1541 1539 1538 1537 1534 1532 1530 1529 1528 1527 1525 1524
1554 1554 1555 1555 1556 1556 1556 1556 1556 1555 1555 1554 1554 1554 1554 1553 1553 1552 1551 1550 1549 1549 1548 1547 1547 1546 1545 1543 1542 1541 1539 1538 1536 1534 1533 1531 1529 1527 1524 1523 1522 1521 1519